Time,TemperatureF,DewpointF,PressureIn,WindDirection,WindDirectionDegrees,WindSpeedMPH,WindSpeedGustMPH,Humidity,HourlyPrecipIn,Conditions,Clouds,dailyrainin,SolarRadiationWatts/m^2,SoftwareType,DateUTC
2013-01-29 00:03:00,31.6,30.1,29.57,ESE,123,1.0,1.0,94,0.00,,---,0.00,0.00,VWS V14.00,2013-01-29 06:03:00,
2013-01-29 00:08:00,31.6,30.1,29.57,SE,140,0.0,1.0,94,0.00,,---,0.00,0.00,VWS V14.00,2013-01-29 06:08:00,
2013-01-29 00:13:00,31.6,30.3,29.57,ESE,113,1.0,1.0,95,0.00,,---,0.00,0.00,VWS V14.00,2013-01-29 06:13:00,
2013-01-29 00:18:00,31.8,30.5,29.57,SE,126,1.0,1.0,95,0.00,,---,0.00,0.00,VWS V14.00,2013-01-29 06:18:00,
2013-01-29 00:23:00,31.8,30.5,29.57,SE,126,1.0,1.0,95,0.00,,---,0.00,0.00,VWS V14.00,2013-01-29 06:23:00,
2013-01-29 00:28:00,31.8,30.5,29.57,ESE,112,1.0,1.0,95,0.00,,---,0.00,0.00,VWS V14.00,2013-01-29 06:28:00,
2013-01-29 00:33:00,31.9,30.6,29.56,ESE,112,1.0,1.0,95,0.00,,---,0.00,0.00,VWS V14.00,2013-01-29 06:33:00,
2013-01-29 00:38:00,31.9,30.6,29.56,ESE,112,0.0,0.0,95,0.00,,---,0.00,0.00,VWS V14.00,2013-01-29 06:38:00,
2013-01-29 00:43:00,31.9,30.6,29.56,ESE,112,0.0,0.0,95,0.00,,---,0.00,0.00,VWS V14.00,2013-01-29 06:43:00,
2013-01-29 00:48:00,31.9,30.6,29.55,NE,51,1.0,1.0,95,0.00,,---,0.00,0.00,VWS V14.00,2013-01-29 06:48:00,
2013-01-29 00:53:00,31.9,30.6,29.55,NE,51,1.0,1.0,95,0.00,,---,0.00,0.00,VWS V14.00,2013-01-29 06:53:00,
2013-01-29 00:58:00,31.8,30.5,29.55,NE,51,1.0,1.0,95,0.00,,---,0.00,0.00,VWS V14.00,2013-01-29 06:58:00,
2013-01-29 01:03:00,31.8,30.5,29.54,NE,51,0.0,0.0,95,0.00,,---,0.00,0.00,VWS V14.00,2013-01-29 07:03:00,
2013-01-29 01:08:00,31.8,30.5,29.54,North,0,1.0,1.0,95,0.00,,---,0.00,0.00,VWS V14.00,2013-01-29 07:08:00,
2013-01-29 01:13:00,31.8,30.5,29.54,North,1,1.0,1.0,95,0.00,,---,0.00,0.00,VWS V14.00,2013-01-29 07:13:00,
2013-01-29 01:18:00,31.8,30.5,29.53,NNE,13,1.0,1.0,95,0.00,,---,0.00,0.00,VWS V14.00,2013-01-29 07:18:00,
2013-01-29 01:23:00,31.8,30.5,29.53,NE,45,1.0,1.0,95,0.00,,---,0.00,0.00,VWS V14.00,2013-01-29 07:23:00,
2013-01-29 01:28:00,31.8,30.5,29.53,NE,52,1.0,1.0,95,0.00,,---,0.00,0.00,VWS V14.00,2013-01-29 07:28:00,
2013-01-29 01:33:00,31.8,30.5,29.52,NE,45,0.0,0.0,95,0.00,,---,0.00,0.00,VWS V14.00,2013-01-29 07:33:00,
2013-01-29 01:38:00,31.8,30.5,29.52,NE,45,0.0,0.0,95,0.00,,---,0.00,0.00,VWS V14.00,2013-01-29 07:38:00,
2013-01-29 01:43:00,31.8,30.5,29.52,NNE,32,1.0,1.0,95,0.00,,---,0.00,0.00,VWS V14.00,2013-01-29 07:43:00,
2013-01-29 01:48:00,31.8,30.5,29.51,NE,34,1.0,1.0,95,0.00,,---,0.00,0.00,VWS V14.00,2013-01-29 07:48:00,
2013-01-29 01:53:00,31.8,30.5,29.51,NNE,23,2.0,2.0,95,0.00,,---,0.00,0.00,VWS V14.00,2013-01-29 07:53:00,
2013-01-29 01:58:00,31.8,30.5,29.51,North,0,0.0,0.0,95,0.00,,---,0.01,0.00,VWS V14.00,2013-01-29 07:58:00,
2013-01-29 02:03:00,31.8,30.5,29.51,NNE,17,1.0,1.0,95,0.00,,---,0.01,0.00,VWS V14.00,2013-01-29 08:03:00,
2013-01-29 02:08:00,31.8,30.5,29.51,NNE,21,0.0,0.0,95,0.00,,---,0.01,0.00,VWS V14.00,2013-01-29 08:08:00,
2013-01-29 02:13:00,31.8,30.5,29.51,North,11,1.0,2.0,95,0.00,,---,0.01,0.00,VWS V14.00,2013-01-29 08:13:00,
2013-01-29 02:18:00,31.8,30.5,29.51,North,0,2.0,2.0,95,0.00,,---,0.01,0.00,VWS V14.00,2013-01-29 08:18:00,
2013-01-29 02:23:00,31.8,30.5,29.51,North,0,2.0,2.0,95,0.00,,---,0.01,0.00,VWS V14.00,2013-01-29 08:23:00,
2013-01-29 02:28:00,31.8,30.5,29.51,NE,38,1.0,1.0,95,0.00,,---,0.01,0.00,VWS V14.00,2013-01-29 08:28:00,
2013-01-29 02:33:00,31.8,30.5,29.50,NNE,23,1.0,1.0,95,0.00,,---,0.01,0.00,VWS V14.00,2013-01-29 08:33:00,
2013-01-29 02:38:00,31.8,30.5,29.50,NNE,17,1.0,1.0,95,0.00,,---,0.01,0.00,VWS V14.00,2013-01-29 08:38:00,
2013-01-29 02:43:00,31.8,30.5,29.50,NNE,32,2.0,2.0,95,0.00,,---,0.01,0.00,VWS V14.00,2013-01-29 08:43:00,
2013-01-29 02:48:00,31.8,30.5,29.49,North,0,2.0,2.0,95,0.00,,---,0.01,0.00,VWS V14.00,2013-01-29 08:48:00,
2013-01-29 02:53:00,31.8,30.5,29.49,North,353,2.0,2.0,95,0.00,,---,0.01,0.00,VWS V14.00,2013-01-29 08:53:00,
2013-01-29 02:58:00,31.8,30.5,29.49,NNW,347,2.0,2.0,95,0.00,,---,0.01,0.00,VWS V14.00,2013-01-29 08:58:00,
2013-01-29 03:03:00,31.8,30.5,29.50,NNW,339,2.0,2.0,95,0.00,,---,0.01,0.00,VWS V14.00,2013-01-29 09:03:00,
2013-01-29 03:08:00,31.8,30.5,29.50,NW,319,3.0,3.0,95,0.00,,---,0.01,0.00,VWS V14.00,2013-01-29 09:08:00,
2013-01-29 03:13:00,31.8,30.5,29.50,NW,323,1.0,1.0,95,0.00,,---,0.01,0.00,VWS V14.00,2013-01-29 09:13:00,
2013-01-29 03:18:00,31.8,30.5,29.50,North,359,2.0,2.0,95,0.00,,---,0.01,0.00,VWS V14.00,2013-01-29 09:18:00,
2013-01-29 03:23:00,31.8,30.5,29.50,North,359,3.0,3.0,95,0.00,,---,0.01,0.00,VWS V14.00,2013-01-29 09:23:00,
2013-01-29 03:28:00,31.8,30.5,29.50,North,0,1.0,1.0,95,0.00,,---,0.01,0.00,VWS V14.00,2013-01-29 09:28:00,
2013-01-29 03:33:00,31.8,30.5,29.51,NW,315,2.0,2.0,95,0.00,,---,0.01,0.00,VWS V14.00,2013-01-29 09:33:00,
2013-01-29 03:38:00,31.8,30.5,29.51,NNW,339,1.0,1.0,95,0.00,,---,0.01,0.00,VWS V14.00,2013-01-29 09:38:00,
2013-01-29 03:43:00,31.8,30.5,29.51,North,0,1.0,1.0,95,0.00,,---,0.01,0.00,VWS V14.00,2013-01-29 09:43:00,
2013-01-29 03:48:00,31.8,30.5,29.50,North,8,1.0,2.0,95,0.00,,---,0.01,0.00,VWS V14.00,2013-01-29 09:48:00,
2013-01-29 03:53:00,31.8,30.5,29.50,NNE,17,1.0,1.0,95,0.00,,---,0.01,0.00,VWS V14.00,2013-01-29 09:53:00,
2013-01-29 03:58:00,31.6,30.3,29.50,North,1,1.0,1.0,95,0.00,,---,0.01,0.00,VWS V14.00,2013-01-29 09:58:00,
2013-01-29 04:03:00,31.6,30.3,29.49,North,0,1.0,1.0,95,0.00,,---,0.01,0.00,VWS V14.00,2013-01-29 10:03:00,
2013-01-29 04:08:00,31.6,30.3,29.49,NW,309,2.0,2.0,95,0.00,,---,0.01,0.00,VWS V14.00,2013-01-29 10:08:00,
2013-01-29 04:13:00,31.6,30.3,29.49,NW,320,4.0,4.0,95,0.00,,---,0.01,0.00,VWS V14.00,2013-01-29 10:13:00,
2013-01-29 04:18:00,31.6,30.3,29.49,NW,326,2.0,2.0,95,0.00,,---,0.01,0.00,VWS V14.00,2013-01-29 10:18:00,
2013-01-29 04:23:00,31.6,30.3,29.49,North,356,2.0,2.0,95,0.00,,---,0.01,0.00,VWS V14.00,2013-01-29 10:23:00,
2013-01-29 04:28:00,31.6,30.3,29.49,North,352,0.0,0.0,95,0.00,,---,0.01,0.00,VWS V14.00,2013-01-29 10:28:00,
2013-01-29 04:33:00,31.6,30.3,29.49,North,352,1.0,1.0,95,0.00,,---,0.01,0.00,VWS V14.00,2013-01-29 10:33:00,
2013-01-29 04:38:00,31.6,30.3,29.49,NW,322,2.0,2.0,95,0.00,,---,0.01,0.00,VWS V14.00,2013-01-29 10:38:00,
2013-01-29 04:43:00,31.6,30.3,29.49,NW,319,2.0,2.0,95,0.00,,---,0.01,0.00,VWS V14.00,2013-01-29 10:43:00,
2013-01-29 04:48:00,31.6,30.3,29.49,NW,326,1.0,1.0,95,0.00,,---,0.01,0.00,VWS V14.00,2013-01-29 10:48:00,
2013-01-29 04:53:00,31.6,30.3,29.49,NNW,330,2.0,3.0,95,0.00,,---,0.01,0.00,VWS V14.00,2013-01-29 10:53:00,
2013-01-29 04:58:00,31.5,30.2,29.49,NNW,328,2.0,2.0,95,0.00,,---,0.01,0.00,VWS V14.00,2013-01-29 10:58:00,
2013-01-29 05:03:00,31.5,30.2,29.49,WNW,299,2.0,3.0,95,0.00,,---,0.01,0.00,VWS V14.00,2013-01-29 11:03:00,
2013-01-29 05:08:00,31.5,30.2,29.49,WNW,294,2.0,2.0,95,0.00,,---,0.01,0.00,VWS V14.00,2013-01-29 11:08:00,
2013-01-29 05:13:00,31.5,30.2,29.49,NW,304,3.0,3.0,95,0.00,,---,0.01,0.00,VWS V14.00,2013-01-29 11:13:00,
2013-01-29 05:18:00,31.5,30.2,29.49,NW,306,2.0,2.0,95,0.00,,---,0.01,0.00,VWS V14.00,2013-01-29 11:18:00,
2013-01-29 05:23:00,31.5,30.2,29.49,NW,308,3.0,3.0,95,0.00,,---,0.01,0.00,VWS V14.00,2013-01-29 11:23:00,
2013-01-29 05:28:00,31.5,30.2,29.49,NW,309,3.0,3.0,95,0.00,,---,0.01,0.00,VWS V14.00,2013-01-29 11:28:00,
2013-01-29 05:33:00,31.5,30.2,29.48,WNW,299,7.0,7.0,95,0.00,,---,0.01,0.00,VWS V14.00,2013-01-29 11:33:00,
2013-01-29 05:38:00,31.5,30.2,29.48,NW,320,1.0,1.0,95,0.00,,---,0.01,0.00,VWS V14.00,2013-01-29 11:38:00,
2013-01-29 05:43:00,31.5,30.2,29.48,NNW,340,3.0,3.0,95,0.00,,---,0.01,0.00,VWS V14.00,2013-01-29 11:43:00,
2013-01-29 05:48:00,31.5,30.2,29.49,WNW,299,3.0,3.0,95,0.00,,---,0.01,0.00,VWS V14.00,2013-01-29 11:48:00,
2013-01-29 05:53:00,31.3,30.0,29.49,NW,311,2.0,3.0,95,0.00,,---,0.01,0.00,VWS V14.00,2013-01-29 11:53:00,
2013-01-29 05:58:00,31.3,30.0,29.49,NNW,346,2.0,3.0,95,0.00,,---,0.01,0.00,VWS V14.00,2013-01-29 11:58:00,
2013-01-29 06:03:00,31.3,30.0,29.45,NNW,342,5.0,5.0,95,0.00,,---,0.01,0.00,VWS V14.00,2013-01-29 12:03:00,
2013-01-29 06:08:00,31.3,30.0,29.45,NW,320,3.0,5.0,95,0.00,,---,0.01,0.00,VWS V14.00,2013-01-29 12:08:00,
2013-01-29 06:13:00,31.3,30.0,29.45,NW,308,3.0,5.0,95,0.00,,---,0.01,0.00,VWS V14.00,2013-01-29 12:13:00,
2013-01-29 06:18:00,31.3,30.0,29.48,NW,322,3.0,3.0,95,0.00,,---,0.01,0.00,VWS V14.00,2013-01-29 12:18:00,
2013-01-29 06:23:00,31.3,30.0,29.48,NNW,335,2.0,3.0,95,0.00,,---,0.01,0.00,VWS V14.00,2013-01-29 12:23:00,
2013-01-29 06:28:00,31.3,30.0,29.48,NW,316,1.0,1.0,95,0.00,,---,0.01,0.00,VWS V14.00,2013-01-29 12:28:00,
2013-01-29 06:32:00,31.3,30.0,29.48,NNW,328,2.0,2.0,95,0.00,,---,0.01,0.00,VWS V14.00,2013-01-29 12:32:00,
2013-01-29 06:37:00,31.3,30.0,29.48,NW,323,1.0,1.0,95,0.00,,---,0.01,0.00,VWS V14.00,2013-01-29 12:37:00,
2013-01-29 06:42:00,31.3,30.0,29.48,NW,308,3.0,3.0,95,0.00,,---,0.01,0.00,VWS V14.00,2013-01-29 12:42:00,
2013-01-29 06:47:00,31.3,30.0,29.48,NW,304,2.0,2.0,95,0.00,,---,0.01,0.00,VWS V14.00,2013-01-29 12:47:00,
2013-01-29 06:52:00,31.3,30.0,29.48,NNW,340,0.0,0.0,95,0.00,,---,0.01,0.00,VWS V14.00,2013-01-29 12:52:00,
2013-01-29 06:57:00,31.3,30.0,29.48,NW,304,2.0,2.0,95,0.00,,---,0.01,0.00,VWS V14.00,2013-01-29 12:57:00,
2013-01-29 07:02:00,31.3,30.0,29.48,NW,304,1.0,1.0,95,0.00,,---,0.01,0.00,VWS V14.00,2013-01-29 13:02:00,
2013-01-29 07:07:00,31.3,30.0,29.48,NW,318,2.0,2.0,95,0.00,,---,0.01,0.00,VWS V14.00,2013-01-29 13:07:00,
2013-01-29 07:12:00,31.3,30.0,29.48,WNW,288,1.0,1.0,95,0.00,,---,0.01,0.00,VWS V14.00,2013-01-29 13:12:00,
2013-01-29 07:17:00,31.3,30.0,29.50,WNW,298,0.0,0.0,95,0.00,,---,0.01,0.00,VWS V14.00,2013-01-29 13:17:00,
2013-01-29 07:22:00,31.5,30.2,29.50,West,280,0.0,0.0,95,0.00,,---,0.01,0.00,VWS V14.00,2013-01-29 13:22:00,
2013-01-29 07:27:00,31.5,30.2,29.50,WNW,282,1.0,1.0,95,0.00,,---,0.01,0.00,VWS V14.00,2013-01-29 13:27:00,
2013-01-29 07:32:00,31.5,30.2,29.50,NW,306,1.0,1.0,95,0.00,,---,0.01,0.00,VWS V14.00,2013-01-29 13:32:00,
2013-01-29 07:37:00,31.5,30.2,29.50,NW,309,0.0,0.0,95,0.00,,---,0.01,0.00,VWS V14.00,2013-01-29 13:37:00,
2013-01-29 07:42:00,31.5,30.2,29.50,WNW,289,1.0,1.0,95,0.00,,---,0.01,0.00,VWS V14.00,2013-01-29 13:42:00,
2013-01-29 07:47:00,31.5,30.2,29.49,WNW,298,2.0,2.0,95,0.00,,---,0.01,0.00,VWS V14.00,2013-01-29 13:47:00,
2013-01-29 07:52:00,31.5,30.2,29.49,WNW,289,0.0,0.0,95,0.00,,---,0.01,0.00,VWS V14.00,2013-01-29 13:52:00,
2013-01-29 07:57:00,31.5,30.2,29.49,WNW,289,1.0,1.0,95,0.00,,---,0.01,0.00,VWS V14.00,2013-01-29 13:57:00,
2013-01-29 08:02:00,31.5,30.2,29.51,WNW,292,1.0,2.0,95,0.00,,---,0.01,0.00,VWS V14.00,2013-01-29 14:02:00,
2013-01-29 08:07:00,31.5,30.2,29.51,WNW,292,2.0,2.0,95,0.00,,---,0.01,5.00,VWS V14.00,2013-01-29 14:07:00,
2013-01-29 08:12:00,31.5,30.2,29.51,West,270,3.0,3.0,95,0.00,,---,0.01,5.00,VWS V14.00,2013-01-29 14:12:00,
2013-01-29 08:17:00,31.5,30.2,29.53,WNW,285,2.0,2.0,95,0.00,,---,0.01,5.00,VWS V14.00,2013-01-29 14:17:00,
2013-01-29 08:22:00,31.5,30.2,29.53,NW,322,2.0,2.0,95,0.00,,---,0.01,5.00,VWS V14.00,2013-01-29 14:22:00,
2013-01-29 08:27:00,31.6,30.3,29.53,WNW,302,3.0,3.0,95,0.00,,---,0.01,12.00,VWS V14.00,2013-01-29 14:27:00,
2013-01-29 08:32:00,31.6,30.3,29.53,West,278,3.0,3.0,95,0.00,,---,0.01,14.00,VWS V14.00,2013-01-29 14:32:00,
2013-01-29 08:37:00,31.6,30.3,29.53,WNW,285,3.0,4.0,95,0.00,,---,0.01,14.00,VWS V14.00,2013-01-29 14:37:00,
2013-01-29 08:42:00,31.5,30.2,29.53,NW,308,1.0,1.0,95,0.00,,---,0.01,14.00,VWS V14.00,2013-01-29 14:42:00,
2013-01-29 08:47:00,31.5,30.2,29.52,NNW,328,2.0,2.0,95,0.00,,---,0.01,23.00,VWS V14.00,2013-01-29 14:47:00,
2013-01-29 08:52:00,31.5,30.2,29.52,West,278,3.0,3.0,95,0.00,,---,0.01,23.00,VWS V14.00,2013-01-29 14:52:00,
2013-01-29 08:57:00,31.5,30.2,29.52,NW,320,2.0,2.0,95,0.00,,---,0.01,23.00,VWS V14.00,2013-01-29 14:57:00,
2013-01-29 09:02:00,31.6,30.3,29.52,WNW,291,6.0,6.0,95,0.00,,---,0.01,23.00,VWS V14.00,2013-01-29 15:02:00,
2013-01-29 09:07:00,31.6,30.3,29.52,NW,311,5.0,5.0,95,0.00,,---,0.01,23.00,VWS V14.00,2013-01-29 15:07:00,
2013-01-29 09:12:00,31.6,30.3,29.52,NW,309,7.0,7.0,95,0.00,,---,0.01,23.00,VWS V14.00,2013-01-29 15:12:00,
2013-01-29 09:17:00,31.8,30.5,29.54,West,271,2.0,2.0,95,0.00,,---,0.01,23.00,VWS V14.00,2013-01-29 15:17:00,
2013-01-29 09:22:00,31.8,30.5,29.54,WNW,287,3.0,3.0,95,0.00,,---,0.01,23.00,VWS V14.00,2013-01-29 15:22:00,
2013-01-29 09:27:00,31.8,30.5,29.54,NW,316,4.0,4.0,95,0.00,,---,0.01,23.00,VWS V14.00,2013-01-29 15:27:00,
2013-01-29 09:32:00,31.8,30.5,29.54,NNW,330,6.0,6.0,95,0.00,,---,0.01,23.00,VWS V14.00,2013-01-29 15:32:00,
2013-01-29 09:37:00,31.9,30.6,29.54,NW,320,3.0,3.0,95,0.00,,---,0.01,23.00,VWS V14.00,2013-01-29 15:37:00,
2013-01-29 09:42:00,31.9,30.6,29.54,NW,318,5.0,5.0,95,0.00,,---,0.01,23.00,VWS V14.00,2013-01-29 15:42:00,
2013-01-29 09:47:00,31.9,30.6,29.53,WNW,282,8.0,8.0,95,0.00,,---,0.01,23.00,VWS V14.00,2013-01-29 15:47:00,
2013-01-29 09:52:00,31.9,30.6,29.53,WNW,299,6.0,6.0,95,0.00,,---,0.02,23.00,VWS V14.00,2013-01-29 15:52:00,
2013-01-29 09:57:00,32.1,30.8,29.53,NW,306,8.0,8.0,95,0.00,,---,0.02,23.00,VWS V14.00,2013-01-29 15:57:00,
2013-01-29 10:02:00,32.1,30.8,29.53,West,278,4.0,4.0,95,0.00,,---,0.02,46.00,VWS V14.00,2013-01-29 16:02:00,
2013-01-29 10:07:00,32.2,30.9,29.53,NW,315,5.0,5.0,95,0.00,,---,0.02,46.00,VWS V14.00,2013-01-29 16:07:00,
2013-01-29 10:12:00,32.2,30.9,29.53,NW,320,7.0,7.0,95,0.00,,---,0.02,46.00,VWS V14.00,2013-01-29 16:12:00,
2013-01-29 10:17:00,32.4,31.1,29.54,NW,311,5.0,5.0,95,0.00,,---,0.02,46.00,VWS V14.00,2013-01-29 16:17:00,
2013-01-29 10:22:00,32.4,31.1,29.54,NNW,328,7.0,7.0,95,0.00,,---,0.02,46.00,VWS V14.00,2013-01-29 16:22:00,
2013-01-29 10:27:00,32.5,31.0,29.54,NW,312,6.0,6.0,94,0.00,,---,0.02,46.00,VWS V14.00,2013-01-29 16:27:00,
2013-01-29 10:32:00,32.7,31.2,29.56,NW,309,2.0,2.0,94,0.00,,---,0.02,46.00,VWS V14.00,2013-01-29 16:32:00,
2013-01-29 10:37:00,32.7,31.2,29.56,NW,319,3.0,3.0,94,0.00,,---,0.02,46.00,VWS V14.00,2013-01-29 16:37:00,
2013-01-29 10:42:00,32.7,31.2,29.56,WNW,291,3.0,3.0,94,0.00,,---,0.02,46.00,VWS V14.00,2013-01-29 16:42:00,
2013-01-29 10:47:00,32.8,31.3,29.57,North,350,5.0,5.0,94,0.00,,---,0.02,46.00,VWS V14.00,2013-01-29 16:47:00,
2013-01-29 10:52:00,32.8,31.3,29.57,North,359,4.0,4.0,94,0.00,,---,0.03,46.00,VWS V14.00,2013-01-29 16:52:00,
2013-01-29 10:57:00,32.9,31.4,29.57,NW,326,2.0,3.0,94,0.00,,---,0.03,46.00,VWS V14.00,2013-01-29 16:57:00,
2013-01-29 11:02:00,33.1,31.6,29.57,NNW,335,8.0,8.0,94,0.00,,---,0.03,46.00,VWS V14.00,2013-01-29 17:02:00,
2013-01-29 11:07:00,33.1,31.6,29.57,NW,312,4.0,4.0,94,0.00,,---,0.03,46.00,VWS V14.00,2013-01-29 17:07:00,
2013-01-29 11:12:00,33.1,31.3,29.57,WNW,291,11.0,11.0,93,0.00,,---,0.03,46.00,VWS V14.00,2013-01-29 17:12:00,
2013-01-29 11:17:00,33.1,31.3,29.57,NW,308,12.0,12.0,93,0.00,,---,0.03,144.00,VWS V14.00,2013-01-29 17:17:00,
2013-01-29 11:22:00,33.4,31.6,29.57,NW,306,7.0,7.0,93,0.00,,---,0.03,144.00,VWS V14.00,2013-01-29 17:22:00,
2013-01-29 11:27:00,33.4,31.6,29.57,NNW,335,8.0,8.0,93,0.00,,---,0.03,144.00,VWS V14.00,2013-01-29 17:27:00,
2013-01-29 11:32:00,33.4,30.8,29.56,North,0,3.0,3.0,90,0.00,,---,0.03,144.00,VWS V14.00,2013-01-29 17:32:00,
2013-01-29 11:37:00,33.7,31.1,29.56,NNW,328,2.0,2.0,90,0.00,,---,0.03,144.00,VWS V14.00,2013-01-29 17:37:00,
2013-01-29 11:42:00,33.8,31.2,29.56,North,353,6.0,6.0,90,0.00,,---,0.03,144.00,VWS V14.00,2013-01-29 17:42:00,
2013-01-29 11:47:00,34.0,31.4,29.58,NW,306,5.0,5.0,90,0.00,,---,0.03,144.00,VWS V14.00,2013-01-29 17:47:00,
2013-01-29 11:52:00,34.3,31.7,29.58,NW,319,3.0,3.0,90,0.00,,---,0.04,144.00,VWS V14.00,2013-01-29 17:52:00,
2013-01-29 11:57:00,34.4,31.8,29.58,North,353,1.0,1.0,90,0.00,,---,0.04,144.00,VWS V14.00,2013-01-29 17:57:00,
2013-01-29 12:02:00,34.9,32.3,29.59,NNW,332,6.0,6.0,90,0.00,,---,0.04,144.00,VWS V14.00,2013-01-29 18:02:00,
2013-01-29 12:07:00,35.0,30.1,29.59,NW,323,5.0,5.0,82,0.00,,---,0.05,144.00,VWS V14.00,2013-01-29 18:07:00,
2013-01-29 12:12:00,35.0,29.8,29.59,North,352,3.0,3.0,81,0.00,,---,0.05,301.00,VWS V14.00,2013-01-29 18:12:00,
2013-01-29 12:17:00,35.2,30.0,29.59,NNW,339,7.0,7.0,81,0.00,,---,0.05,301.00,VWS V14.00,2013-01-29 18:17:00,
2013-01-29 12:22:00,35.2,29.7,29.59,WNW,299,4.0,4.0,80,0.00,,---,0.05,301.00,VWS V14.00,2013-01-29 18:22:00,
2013-01-29 12:27:00,35.2,29.7,29.59,West,275,6.0,6.0,80,0.00,,---,0.05,301.00,VWS V14.00,2013-01-29 18:27:00,
2013-01-29 12:32:00,35.0,29.5,29.59,NW,326,12.0,12.0,80,0.00,,---,0.05,301.00,VWS V14.00,2013-01-29 18:32:00,
2013-01-29 12:37:00,34.9,29.4,29.59,NW,306,2.0,5.0,80,0.00,,---,0.05,301.00,VWS V14.00,2013-01-29 18:37:00,
2013-01-29 12:42:00,34.9,29.4,29.59,North,0,4.0,4.0,80,0.00,,---,0.05,301.00,VWS V14.00,2013-01-29 18:42:00,
2013-01-29 12:47:00,34.9,29.4,29.57,NW,323,5.0,5.0,80,0.00,,---,0.05,301.00,VWS V14.00,2013-01-29 18:47:00,
2013-01-29 12:52:00,34.9,29.4,29.57,NW,322,7.0,7.0,80,0.00,,---,0.05,301.00,VWS V14.00,2013-01-29 18:52:00,
2013-01-29 12:57:00,35.0,29.5,29.57,NNW,339,4.0,4.0,80,0.00,,---,0.07,301.00,VWS V14.00,2013-01-29 18:57:00,
2013-01-29 13:02:00,35.0,29.5,29.57,West,277,8.0,8.0,80,0.00,,---,0.07,301.00,VWS V14.00,2013-01-29 19:02:00,
2013-01-29 13:07:00,35.0,29.5,29.57,NNW,337,5.0,5.0,80,0.00,,---,0.07,301.00,VWS V14.00,2013-01-29 19:07:00,
2013-01-29 13:12:00,35.0,29.5,29.57,NNW,333,7.0,7.0,80,0.00,,---,0.07,301.00,VWS V14.00,2013-01-29 19:12:00,
2013-01-29 13:17:00,35.0,29.5,29.58,NW,323,5.0,5.0,80,0.00,,---,0.07,301.00,VWS V14.00,2013-01-29 19:17:00,
2013-01-29 13:22:00,35.2,29.7,29.58,WNW,299,6.0,6.0,80,0.00,,---,0.07,301.00,VWS V14.00,2013-01-29 19:22:00,
2013-01-29 13:27:00,35.2,29.7,29.58,NW,322,6.0,6.0,80,0.00,,---,0.07,301.00,VWS V14.00,2013-01-29 19:27:00,
2013-01-29 13:32:00,35.2,28.4,29.57,NNW,335,4.0,4.0,76,0.00,,---,0.08,102.00,VWS V14.00,2013-01-29 19:32:00,
2013-01-29 13:37:00,35.3,28.5,29.57,NW,326,4.0,4.0,76,0.00,,---,0.08,102.00,VWS V14.00,2013-01-29 19:37:00,
2013-01-29 13:42:00,35.3,28.5,29.57,WNW,298,6.0,6.0,76,0.00,,---,0.08,102.00,VWS V14.00,2013-01-29 19:42:00,
2013-01-29 13:47:00,35.5,28.7,29.57,North,0,5.0,5.0,76,0.00,,---,0.08,102.00,VWS V14.00,2013-01-29 19:47:00,
2013-01-29 13:52:00,35.5,28.7,29.57,NNW,335,4.0,4.0,76,0.00,,---,0.08,102.00,VWS V14.00,2013-01-29 19:52:00,
2013-01-29 13:57:00,35.3,28.5,29.57,NW,322,3.0,6.0,76,0.00,,---,0.08,102.00,VWS V14.00,2013-01-29 19:57:00,
2013-01-29 14:02:00,35.3,28.8,29.55,NNW,328,2.0,6.0,77,0.00,,---,0.08,102.00,VWS V14.00,2013-01-29 20:02:00,
2013-01-29 14:07:00,35.3,29.1,29.55,NW,306,2.0,6.0,78,0.00,,---,0.08,120.00,VWS V14.00,2013-01-29 20:07:00,
2013-01-29 14:12:00,35.2,29.0,29.55,NW,304,6.0,6.0,78,0.00,,---,0.08,120.00,VWS V14.00,2013-01-29 20:12:00,
2013-01-29 14:17:00,35.2,29.0,29.56,NNW,342,3.0,3.0,78,0.00,,---,0.08,120.00,VWS V14.00,2013-01-29 20:17:00,
2013-01-29 14:22:00,35.2,29.4,29.56,NNW,328,2.0,2.0,79,0.00,,---,0.09,120.00,VWS V14.00,2013-01-29 20:22:00,
2013-01-29 14:27:00,35.2,29.4,29.56,NNW,329,3.0,6.0,79,0.00,,---,0.09,157.00,VWS V14.00,2013-01-29 20:27:00,
2013-01-29 14:32:00,35.2,29.0,29.56,NW,325,9.0,11.0,78,0.00,,---,0.09,137.00,VWS V14.00,2013-01-29 20:32:00,
2013-01-29 14:37:00,35.2,28.7,29.56,NW,323,5.0,5.0,77,0.00,,---,0.09,137.00,VWS V14.00,2013-01-29 20:37:00,
2013-01-29 14:42:00,35.3,28.8,29.56,NW,312,2.0,3.0,77,0.00,,---,0.09,137.00,VWS V14.00,2013-01-29 20:42:00,
2013-01-29 14:47:00,35.3,28.8,29.56,NW,318,4.0,6.0,77,0.00,,---,0.09,148.00,VWS V14.00,2013-01-29 20:47:00,
2013-01-29 14:52:00,35.3,28.8,29.56,NW,316,6.0,6.0,77,0.00,,---,0.09,137.00,VWS V14.00,2013-01-29 20:52:00,
2013-01-29 14:57:00,35.2,28.7,29.56,North,0,11.0,11.0,77,0.00,,---,0.09,137.00,VWS V14.00,2013-01-29 20:57:00,
2013-01-29 15:02:00,35.2,28.1,29.56,NNW,342,5.0,5.0,75,0.00,,---,0.09,137.00,VWS V14.00,2013-01-29 21:02:00,
2013-01-29 15:07:00,35.3,28.2,29.56,NW,326,3.0,3.0,75,0.00,,---,0.09,137.00,VWS V14.00,2013-01-29 21:07:00,
2013-01-29 15:12:00,35.3,27.9,29.56,North,1,5.0,5.0,74,0.00,,---,0.09,137.00,VWS V14.00,2013-01-29 21:12:00,
2013-01-29 15:17:00,35.3,27.9,29.57,WNW,302,7.0,7.0,74,0.00,,---,0.09,137.00,VWS V14.00,2013-01-29 21:17:00,
2013-01-29 15:22:00,35.2,27.8,29.57,WNW,302,5.0,5.0,74,0.00,,---,0.09,137.00,VWS V14.00,2013-01-29 21:22:00,
2013-01-29 15:27:00,35.2,28.4,29.57,NNW,344,6.0,6.0,76,0.00,,---,0.10,137.00,VWS V14.00,2013-01-29 21:27:00,
2013-01-29 15:32:00,34.9,28.1,29.58,NNW,332,3.0,3.0,76,0.00,,---,0.10,137.00,VWS V14.00,2013-01-29 21:32:00,
2013-01-29 15:37:00,34.9,28.1,29.58,NW,318,3.0,3.0,76,0.00,,---,0.10,137.00,VWS V14.00,2013-01-29 21:37:00,
2013-01-29 15:42:00,34.7,27.9,29.58,NNW,332,2.0,3.0,76,0.00,,---,0.10,137.00,VWS V14.00,2013-01-29 21:42:00,
2013-01-29 15:47:00,34.9,28.1,29.59,North,0,6.0,6.0,76,0.00,,---,0.10,137.00,VWS V14.00,2013-01-29 21:47:00,
2013-01-29 15:52:00,34.9,28.1,29.59,NNW,337,4.0,4.0,76,0.00,,---,0.10,58.00,VWS V14.00,2013-01-29 21:52:00,
2013-01-29 15:57:00,34.7,27.9,29.59,NW,318,3.0,10.0,76,0.00,,---,0.10,58.00,VWS V14.00,2013-01-29 21:57:00,
2013-01-29 16:02:00,34.6,27.8,29.60,NNW,332,6.0,10.0,76,0.00,,---,0.10,55.00,VWS V14.00,2013-01-29 22:02:00,
2013-01-29 16:07:00,34.4,27.6,29.60,NW,304,5.0,7.0,76,0.00,,---,0.10,55.00,VWS V14.00,2013-01-29 22:07:00,
2013-01-29 16:12:00,34.4,27.6,29.60,NW,325,3.0,3.0,76,0.00,,---,0.10,55.00,VWS V14.00,2013-01-29 22:12:00,
2013-01-29 16:17:00,34.4,27.6,29.59,WNW,294,8.0,8.0,76,0.00,,---,0.10,55.00,VWS V14.00,2013-01-29 22:17:00,
2013-01-29 16:22:00,34.3,27.2,29.59,WNW,291,6.0,8.0,75,0.00,,---,0.10,55.00,VWS V14.00,2013-01-29 22:22:00,
2013-01-29 16:27:00,34.3,27.2,29.59,NNW,333,3.0,3.0,75,0.00,,---,0.10,55.00,VWS V14.00,2013-01-29 22:27:00,
2013-01-29 16:32:00,34.3,27.2,29.59,WNW,298,7.0,7.0,75,0.00,,---,0.10,55.00,VWS V14.00,2013-01-29 22:32:00,
2013-01-29 16:37:00,34.1,27.0,29.59,NNW,328,2.0,3.0,75,0.00,,---,0.10,55.00,VWS V14.00,2013-01-29 22:37:00,
2013-01-29 16:42:00,34.1,27.0,29.59,WNW,299,5.0,5.0,75,0.00,,---,0.10,55.00,VWS V14.00,2013-01-29 22:42:00,
2013-01-29 16:47:00,34.0,26.9,29.59,NW,319,8.0,8.0,75,0.00,,---,0.10,55.00,VWS V14.00,2013-01-29 22:47:00,
2013-01-29 16:52:00,34.0,26.9,29.59,NNE,18,4.0,4.0,75,0.00,,---,0.10,55.00,VWS V14.00,2013-01-29 22:52:00,
2013-01-29 16:57:00,33.8,26.7,29.59,NNW,347,4.0,5.0,75,0.00,,---,0.10,55.00,VWS V14.00,2013-01-29 22:57:00,
2013-01-29 17:02:00,33.8,26.7,29.59,NNW,337,3.0,3.0,75,0.00,,---,0.10,55.00,VWS V14.00,2013-01-29 23:02:00,
2013-01-29 17:07:00,33.8,26.7,29.59,NW,312,7.0,7.0,75,0.00,,---,0.10,55.00,VWS V14.00,2013-01-29 23:07:00,
2013-01-29 17:12:00,33.7,26.6,29.59,NNW,347,3.0,3.0,75,0.00,,---,0.10,55.00,VWS V14.00,2013-01-29 23:12:00,
2013-01-29 17:17:00,33.7,26.6,29.59,North,0,3.0,4.0,75,0.00,,---,0.10,0.00,VWS V14.00,2013-01-29 23:17:00,
2013-01-29 17:22:00,33.5,26.4,29.59,NNW,343,7.0,7.0,75,0.00,,---,0.10,0.00,VWS V14.00,2013-01-29 23:22:00,
2013-01-29 17:27:00,33.5,26.4,29.59,North,352,4.0,5.0,75,0.00,,---,0.10,0.00,VWS V14.00,2013-01-29 23:27:00,
2013-01-29 17:32:00,33.5,26.1,29.60,NW,311,6.0,6.0,74,0.00,,---,0.10,0.00,VWS V14.00,2013-01-29 23:32:00,
2013-01-29 17:37:00,33.4,26.0,29.60,North,0,4.0,5.0,74,0.00,,---,0.10,0.00,VWS V14.00,2013-01-29 23:37:00,
2013-01-29 17:42:00,33.4,26.0,29.60,North,3,10.0,10.0,74,0.00,,---,0.10,0.00,VWS V14.00,2013-01-29 23:42:00,
2013-01-29 17:47:00,33.2,25.8,29.60,NNE,21,5.0,7.0,74,0.00,,---,0.10,0.00,VWS V14.00,2013-01-29 23:47:00,
2013-01-29 17:52:00,32.8,25.8,29.60,North,352,5.0,5.0,75,0.00,,---,0.10,0.00,VWS V14.00,2013-01-29 23:52:00,
2013-01-29 17:57:00,32.5,25.5,29.60,North,10,10.0,10.0,75,0.00,,---,0.10,0.00,VWS V14.00,2013-01-29 23:57:00,
2013-01-29 18:02:00,32.2,24.9,29.64,NNW,342,11.0,13.0,74,0.00,,---,0.10,0.00,VWS V14.00,2013-01-30 00:02:00,
2013-01-29 18:07:00,31.9,24.2,29.64,NNE,21,7.0,8.0,73,0.00,,---,0.10,0.00,VWS V14.00,2013-01-30 00:07:00,
2013-01-29 18:12:00,31.8,24.1,29.64,North,7,12.0,12.0,73,0.00,,---,0.10,0.00,VWS V14.00,2013-01-30 00:12:00,
2013-01-29 18:17:00,31.6,24.0,29.63,NW,304,9.0,9.0,73,0.00,,---,0.10,0.00,VWS V14.00,2013-01-30 00:17:00,
2013-01-29 18:22:00,31.5,23.9,29.63,NNW,328,6.0,6.0,73,0.00,,---,0.10,0.00,VWS V14.00,2013-01-30 00:22:00,
2013-01-29 18:27:00,31.3,23.7,29.63,NNE,16,6.0,6.0,73,0.00,,---,0.10,0.00,VWS V14.00,2013-01-30 00:27:00,
2013-01-29 18:32:00,31.2,23.9,29.65,North,6,6.0,6.0,74,0.00,,---,0.10,0.00,VWS V14.00,2013-01-30 00:32:00,
2013-01-29 18:37:00,31.2,23.9,29.65,North,353,10.0,10.0,74,0.00,,---,0.10,0.00,VWS V14.00,2013-01-30 00:37:00,
2013-01-29 18:42:00,30.7,23.4,29.65,NNW,328,6.0,6.0,74,0.00,,---,0.10,0.00,VWS V14.00,2013-01-30 00:42:00,
2013-01-29 18:47:00,30.3,23.0,29.65,NW,322,10.0,10.0,74,0.00,,---,0.10,0.00,VWS V14.00,2013-01-30 00:47:00,
2013-01-29 18:52:00,30.0,22.7,29.65,NNW,337,3.0,6.0,74,0.00,,---,0.10,0.00,VWS V14.00,2013-01-30 00:52:00,
2013-01-29 18:57:00,29.8,22.5,29.65,North,8,4.0,4.0,74,0.00,,---,0.10,0.00,VWS V14.00,2013-01-30 00:57:00,
2013-01-29 19:02:00,29.8,22.5,29.67,North,354,1.0,1.0,74,0.00,,---,0.10,0.00,VWS V14.00,2013-01-30 01:02:00,
2013-01-29 19:07:00,29.7,22.4,29.67,NNE,27,11.0,11.0,74,0.00,,---,0.10,0.00,VWS V14.00,2013-01-30 01:07:00,
2013-01-29 19:12:00,29.7,22.4,29.67,North,0,4.0,4.0,74,0.00,,---,0.10,0.00,VWS V14.00,2013-01-30 01:12:00,
2013-01-29 19:17:00,29.7,22.4,29.64,NNW,328,4.0,4.0,74,0.00,,---,0.10,0.00,VWS V14.00,2013-01-30 01:17:00,
2013-01-29 19:22:00,29.4,22.1,29.64,North,6,5.0,12.0,74,0.00,,---,0.10,0.00,VWS V14.00,2013-01-30 01:22:00,
2013-01-29 19:27:00,29.4,22.1,29.64,NNW,342,8.0,8.0,74,0.00,,---,0.10,0.00,VWS V14.00,2013-01-30 01:27:00,
2013-01-29 19:32:00,29.4,22.1,29.63,North,359,6.0,6.0,74,0.00,,---,0.10,0.00,VWS V14.00,2013-01-30 01:32:00,
2013-01-29 19:37:00,29.3,22.1,29.63,North,0,8.0,8.0,74,0.00,,---,0.10,0.00,VWS V14.00,2013-01-30 01:37:00,
2013-01-29 19:42:00,29.3,22.1,29.63,NNE,17,6.0,6.0,74,0.00,,---,0.10,0.00,VWS V14.00,2013-01-30 01:42:00,
2013-01-29 19:47:00,29.3,22.1,29.66,North,356,2.0,2.0,74,0.00,,---,0.10,0.00,VWS V14.00,2013-01-30 01:47:00,
2013-01-29 19:52:00,29.3,22.1,29.66,North,354,3.0,7.0,74,0.00,,---,0.10,0.00,VWS V14.00,2013-01-30 01:52:00,
2013-01-29 19:57:00,29.3,22.1,29.66,NNW,333,7.0,7.0,74,0.00,,---,0.10,0.00,VWS V14.00,2013-01-30 01:57:00,
2013-01-29 20:02:00,29.3,22.1,29.66,NNE,27,6.0,6.0,74,0.00,,---,0.10,0.00,VWS V14.00,2013-01-30 02:02:00,
2013-01-29 20:07:00,29.3,22.1,29.66,North,350,6.0,6.0,74,0.00,,---,0.10,0.00,VWS V14.00,2013-01-30 02:07:00,
2013-01-29 20:12:00,29.3,22.1,29.66,WNW,299,7.0,10.0,74,0.00,,---,0.10,0.00,VWS V14.00,2013-01-30 02:12:00,
2013-01-29 20:17:00,29.3,22.1,29.66,North,0,10.0,10.0,74,0.00,,---,0.10,0.00,VWS V14.00,2013-01-30 02:17:00,
2013-01-29 20:22:00,29.3,21.7,29.66,NNW,337,6.0,6.0,73,0.00,,---,0.10,0.00,VWS V14.00,2013-01-30 02:22:00,
2013-01-29 20:27:00,29.3,21.7,29.66,NNW,330,5.0,6.0,73,0.00,,---,0.10,0.00,VWS V14.00,2013-01-30 02:27:00,
2013-01-29 20:32:00,29.3,21.7,29.67,NW,319,6.0,8.0,73,0.00,,---,0.10,0.00,VWS V14.00,2013-01-30 02:32:00,
2013-01-29 20:37:00,29.1,21.5,29.67,North,353,8.0,8.0,73,0.00,,---,0.10,0.00,VWS V14.00,2013-01-30 02:37:00,
2013-01-29 20:42:00,29.1,21.5,29.67,North,359,5.0,5.0,73,0.00,,---,0.10,0.00,VWS V14.00,2013-01-30 02:42:00,
2013-01-29 20:47:00,29.1,21.5,29.67,North,0,6.0,6.0,73,0.00,,---,0.10,0.00,VWS V14.00,2013-01-30 02:47:00,
2013-01-29 20:52:00,29.1,21.5,29.67,North,356,2.0,3.0,73,0.00,,---,0.10,0.00,VWS V14.00,2013-01-30 02:52:00,
2013-01-29 20:57:00,29.1,21.5,29.67,NW,316,7.0,7.0,73,0.00,,---,0.10,0.00,VWS V14.00,2013-01-30 02:57:00,
2013-01-29 21:02:00,29.1,21.5,29.66,North,10,11.0,11.0,73,0.00,,---,0.10,0.00,VWS V14.00,2013-01-30 03:02:00,
2013-01-29 21:07:00,29.1,21.5,29.66,NNW,336,9.0,9.0,73,0.00,,---,0.10,0.00,VWS V14.00,2013-01-30 03:07:00,
2013-01-29 21:12:00,29.1,21.5,29.66,NNW,329,4.0,5.0,73,0.00,,---,0.10,0.00,VWS V14.00,2013-01-30 03:12:00,
2013-01-29 21:17:00,29.1,21.5,29.65,North,0,7.0,7.0,73,0.00,,---,0.10,0.00,VWS V14.00,2013-01-30 03:17:00,
2013-01-29 21:22:00,29.1,21.5,29.65,NW,326,3.0,3.0,73,0.00,,---,0.10,0.00,VWS V14.00,2013-01-30 03:22:00,
2013-01-29 21:27:00,29.1,21.5,29.65,NNW,336,5.0,5.0,73,0.00,,---,0.10,0.00,VWS V14.00,2013-01-30 03:27:00,
2013-01-29 21:32:00,29.0,21.4,29.64,NNW,340,16.0,16.0,73,0.00,,---,0.10,0.00,VWS V14.00,2013-01-30 03:32:00,
2013-01-29 21:37:00,29.0,21.4,29.64,NE,37,6.0,6.0,73,0.00,,---,0.10,0.00,VWS V14.00,2013-01-30 03:37:00,
2013-01-29 21:42:00,29.0,21.4,29.64,NNW,333,10.0,10.0,73,0.00,,---,0.10,0.00,VWS V14.00,2013-01-30 03:42:00,
2013-01-29 21:47:00,29.0,21.4,29.64,North,0,6.0,6.0,73,0.00,,---,0.10,0.00,VWS V14.00,2013-01-30 03:47:00,
2013-01-29 21:52:00,29.0,21.4,29.64,NNE,27,5.0,5.0,73,0.00,,---,0.10,0.00,VWS V14.00,2013-01-30 03:52:00,
2013-01-29 21:57:00,29.0,21.4,29.64,NNW,344,6.0,6.0,73,0.00,,---,0.10,0.00,VWS V14.00,2013-01-30 03:57:00,
2013-01-29 22:02:00,29.0,21.4,29.67,NW,319,5.0,5.0,73,0.00,,---,0.10,0.00,VWS V14.00,2013-01-30 04:02:00,
2013-01-29 22:07:00,29.0,21.4,29.67,NW,319,3.0,3.0,73,0.00,,---,0.10,0.00,VWS V14.00,2013-01-30 04:07:00,
2013-01-29 22:12:00,29.1,21.5,29.67,North,356,5.0,8.0,73,0.00,,---,0.10,0.00,VWS V14.00,2013-01-30 04:12:00,
2013-01-29 22:17:00,29.1,21.9,29.68,North,359,7.0,7.0,74,0.00,,---,0.10,0.00,VWS V14.00,2013-01-30 04:17:00,
2013-01-29 22:22:00,29.0,21.8,29.68,NW,316,6.0,6.0,74,0.00,,---,0.10,0.00,VWS V14.00,2013-01-30 04:22:00,
2013-01-29 22:27:00,29.0,21.8,29.68,NW,323,8.0,8.0,74,0.00,,---,0.10,0.00,VWS V14.00,2013-01-30 04:27:00,
2013-01-29 22:32:00,28.8,21.6,29.69,North,0,5.0,8.0,74,0.00,,---,0.10,0.00,VWS V14.00,2013-01-30 04:32:00,
2013-01-29 22:37:00,28.8,21.6,29.69,NW,309,7.0,7.0,74,0.00,,---,0.10,0.00,VWS V14.00,2013-01-30 04:37:00,
2013-01-29 22:42:00,28.7,21.5,29.69,NNW,332,6.0,6.0,74,0.00,,---,0.10,0.00,VWS V14.00,2013-01-30 04:42:00,
2013-01-29 22:47:00,28.5,21.3,29.69,NW,315,5.0,5.0,74,0.00,,---,0.10,0.00,VWS V14.00,2013-01-30 04:47:00,
2013-01-29 22:52:00,28.5,21.3,29.69,NW,311,2.0,5.0,74,0.00,,---,0.10,0.00,VWS V14.00,2013-01-30 04:52:00,
2013-01-29 22:57:00,28.4,21.2,29.69,NW,325,6.0,6.0,74,0.00,,---,0.10,0.00,VWS V14.00,2013-01-30 04:57:00,
2013-01-29 23:00:00,28.4,21.2,29.67,North,349,7.0,7.0,74,0.00,,---,0.10,0.00,VWS V14.00,2013-01-30 05:00:00,
2013-01-29 23:03:00,28.1,20.6,29.67,NW,306,7.0,7.0,73,0.00,,---,0.10,0.00,VWS V14.00,2013-01-30 05:03:00,
2013-01-29 23:08:00,28.1,20.6,29.67,NNW,346,9.0,9.0,73,0.00,,---,0.10,0.00,VWS V14.00,2013-01-30 05:08:00,
2013-01-29 23:13:00,28.1,20.6,29.67,North,352,7.0,7.0,73,0.00,,---,0.10,0.00,VWS V14.00,2013-01-30 05:13:00,
2013-01-29 23:18:00,27.8,20.3,29.67,NNW,337,7.0,7.0,73,0.00,,---,0.10,0.00,VWS V14.00,2013-01-30 05:18:00,
2013-01-29 23:23:00,27.6,20.1,29.67,NW,318,7.0,7.0,73,0.00,,---,0.10,0.00,VWS V14.00,2013-01-30 05:23:00,
2013-01-29 23:28:00,27.6,20.1,29.67,NNW,336,12.0,12.0,73,0.00,,---,0.10,0.00,VWS V14.00,2013-01-30 05:28:00,
2013-01-29 23:33:00,27.6,20.1,29.66,NW,305,6.0,6.0,73,0.00,,---,0.10,0.00,VWS V14.00,2013-01-30 05:33:00,
2013-01-29 23:38:00,27.5,20.0,29.66,North,356,5.0,5.0,73,0.00,,---,0.10,0.00,VWS V14.00,2013-01-30 05:38:00,
2013-01-29 23:43:00,27.3,19.8,29.66,NW,312,3.0,3.0,73,0.00,,---,0.10,0.00,VWS V14.00,2013-01-30 05:43:00,
2013-01-29 23:48:00,27.3,19.8,29.66,NW,304,11.0,11.0,73,0.00,,---,0.10,0.00,VWS V14.00,2013-01-30 05:48:00,
2013-01-29 23:53:00,27.3,19.8,29.66,North,354,5.0,10.0,73,0.00,,---,0.10,0.00,VWS V14.00,2013-01-30 05:53:00,
2013-01-29 23:58:00,27.3,19.8,29.66,North,6,3.0,6.0,73,0.00,,---,0.10,0.00,VWS V14.00,2013-01-30 05:58:00,